world map with PHY marked

PHY - Airport

This information may not be accurate or current and is not valid for navigation or flight planning. No warranty of fitness for any purpose is made or implied.

flag of Thailand

Donate via PayPal

Additional information is available on the NEW Great Circle Mapper

Location
City:  Phetchabun, Phetchabun, Thailand
ICAO / IATA:VTPB / PHY

Details
Type:Airport (Aerodrome, Airfield)
Latitude:16°40'34"N (16.676028)
Longitude:101°11'42"E (101.195108)
Datum:WGS 1984
Elevation:450 ft (137 m)
Runways:1
Longest:6890 × 148 ft (2100 × 45 m)

Time
Timezone:UTC+7 (DST+9)
Local Time:

Weather
METAR:VTPB  041100Z VRB02KT 7000 NSC 33/15 Q1010 NOSIG
TAF:VTPB  041100Z 0412/0512 22005KT 7000 FEW025 BECMG 0421/0423 4000 BR BECMG 0502/0504 7000 NSW

Related Locations
Nearby:
Farthest:APE: 12188 mi / 19614 km
San Juan Aposento, ICA, PE

Find:

   beyond  
but within

Other Information
Maps:
Sources:

  


 


Great Circle Mapper   Great Circle Mapper
Great Circle Mapper FAQ   Great Circle Mapper FAQ
  Karl's Home Page
KLSē   KLSē Home
   GC on Facebook
Airlines of the World   Airlines of the World
Donate via PayPal


Copyright © 2004-2019, Karl L. Swartz. All rights reserved.
All trademarks mentioned herein belong to their respective owners.

Please see credits for attribution and copyright information.

Karl Swartz <karl@kls2.com>
  Powered by FreeBSD
Valid HTML 4.01!
Labeled with ICRA
hCard Microformat
Geo Microformat